User: anonymous   Login
Location: Unspecified
(0.0000°N, 0.0000°E)
Time: 08:33:05
(UTC+02:00)
Language:

Ariane H10 - Orbit

View from above orbital plane
View from above orbital plane
View from above satellite
View from above satellite

Ground track
Ground track

The orbit data is extracted from the following two-line orbital elements,

1 21815U 91084C   15091.46102549  .00000673  00000-0  21711-2 0  9996
2 21815 004.0708 052.9411 7196234 137.2880 010.8447 02.31244062193619
Epoch (UTC): 01 April 2015 11:03:52
Eccentricity: 0.7196234
inclination: 4.0708°
perigee height: 394 km
apogee height: 35160 km
right ascension of ascending node: 52.9411°
argument of perigee: 137.2880°
revolutions per day: 2.31244062
mean anomaly at epoch: 10.8447°
orbit number at epoch: 19361

The dashed part of the orbit path shows where the satellite is in the earth's shadow,  

DLR